Погода в Сеговии

Испания     40°56′53″N   4°06′59″W
темп.,
°C
ветер,
м/с
пор.,
м/с
влажн.,
%
обл.,
%
осадки,
мм/ч
давл.,
гПа
погр.,
м
5 августа, чт
чт523:00+16ююз33370 0.0 101926
02:00+15ююз33390 0.0 101933
05:00+13юз33500 0.0 101833
08:00+13ююз22545 0.0 101828
11:00+22зюз45275 0.0 1017670
14:00+26з56235 0.0 10151322
17:00+29з7102110 0.0 10132372
20:00+26зсз810245 0.0 10131826
6 августа, пт
пт623:00+18зюз22490 0.0 101515
02:00+15зюз22500 0.0 101523
05:00+13юз22600 0.0 101416
08:00+13ююз22580 0.0 101418
11:00+21з33315 0.0 1012599
14:00+27з55195 0.0 10091413
17:00+29зсз66170 0.0 10072123
20:00+27зсз77125 0.0 10061323
7 августа, сб
сб723:00+18юз222392 0.0 100916
02:00+14з343797 0.0 101155
05:00+11зюз356030 0.0 101195
08:00+10юз3572100 0.0 1012150
11:00+15з45480 0.0 1012861
14:00+20з57391 0.0 10111711
17:00+22з710261 0.0 10102103
20:00+21зсз78264 0.0 10111993
8 августа, вс
вс823:00+14юз11422 0.0 101411
02:00+11зюз22500 0.0 101611
05:00+10ю11640 0.0 101611
08:00+10вюв11651 0.0 101710
11:00+19ссз22354 0.0 10151113
14:00+24зсз34229 0.0 10142040
17:00+27з341636 0.0 10122739
20:00+25юз43170 0.0 10132035
9 августа, пн
пн923:00+16юв11340 0.0 101711
02:00+14юв22405 0.0 101711
05:00+13юв33482 0.0 101719
08:00+13юв32880 0.0 101830
11:00+23ююз25270 0.0 10171484
14:00+28ююз45159 0.0 10162704
17:00+28ююз561967 0.0 10152758
20:00+27ю441811 0.0 10152814